Theta_e
323 323 323 322 322 321 321 321 321 321 321 321 321 320 320 321 321 328 323 321 325 335 336 325 324 322 323 321 324 329 318 316 318 319 321 327 322 328 332 330 331 333 333 339 343
323 323 323 323 322 321 321 321 321 321 321 321 320 320 320 321 324 322 327 331 335 340 325 320 318 320 318 319 322 322 318 319 324 323 320 320 319 320 322 328 331 334 338 342 343
323 323 323 323 323 322 321 321 321 321 321 320 320 319 319 322 322 320 338 338 337 334 324 322 320 319 315 318 320 322 317 322 322 321 320 319 319 322 320 324 328 332 336 341 341
323 323 323 323 322 322 322 322 322 321 321 320 320 319 320 324 308 321 340 339 339 330 322 318 317 315 314 313 319 316 321 322 322 321 319 319 321 319 322 327 332 336 339 340 339
322 323 323 322 322 322 322 322 321 321 320 320 320 320 322 315 314 329 342 336 327 324 318 316 314 314 312 314 316 316 319 322 324 322 321 321 319 322 323 332 336 338 338 337 337
320 320 322 322 322 321 321 320 320 320 320 320 320 319 319 310 320 323 327 328 327 323 319 318 314 316 314 314 314 317 317 320 323 322 321 319 319 323 328 334 336 337 336 336 335
319 319 319 321 321 321 321 319 318 319 320 321 320 321 314 313 321 322 322 326 328 324 319 320 319 314 314 313 317 316 312 316 320 320 320 321 318 320 330 332 334 335 337 335 336
319 318 318 319 320 321 320 319 318 319 321 320 321 322 311 321 323 320 320 320 322 323 322 321 320 317 314 316 313 311 312 309 319 320 320 319 314 325 329 329 330 334 336 335 335
318 318 317 318 319 320 319 318 319 321 321 321 323 319 310 320 317 319 320 317 320 319 319 318 318 315 314 309 307 308 305 309 314 321 318 319 316 322 325 325 328 332 335 336 335
318 317 317 317 318 318 317 317 321 318 320 325 321 312 315 313 317 319 322 320 318 316 314 313 314 311 311 308 301 305 305 310 312 316 317 317 317 319 320 321 324 330 333 335 336
318 317 316 316 317 317 317 321 314 314 317 314 314 312 312 317 319 316 318 317 318 314 308 311 308 306 309 311 310 310 309 308 314 317 315 315 317 317 320 323 324 327 331 334 336
316 316 316 316 317 316 319 314 313 313 306 314 314 314 317 317 311 314 319 312 312 307 310 309 305 311 313 312 309 309 307 308 314 315 314 315 315 316 321 325 329 330 331 333 336
314 315 316 315 315 317 315 314 316 314 306 310 313 312 313 315 310 311 315 313 310 307 307 306 309 312 311 309 307 308 307 308 308 313 313 312 311 314 321 327 331 332 334 335 336
314 313 315 314 313 319 314 316 316 316 302 305 308 312 313 314 308 315 317 314 311 308 308 307 312 309 308 307 308 305 310 309 308 307 304 312 303 312 320 325 326 329 330 332 336
313 313 314 314 318 318 315 320 317 316 292 307 309 317 315 310 311 311 316 313 308 309 310 306 308 307 306 307 310 307 311 309 308 306 306 307 305 311 320 321 323 327 329 334 336
313 313 313 318 320 319 321 320 314 301 292 303 308 305 306 310 310 312 310 315 315 311 311 310 314 312 310 310 310 311 308 308 308 306 300 305 306 307 316 323 325 327 332 336 337
312 312 313 317 316 322 323 313 299 294 305 302 303 306 305 306 307 308 305 306 305 303 304 308 309 311 312 308 310 309 306 300 299 299 299 309 305 317 324 326 327 328 333 335 337
312 310 314 318 320 321 321 303 292 299 301 307 304 306 303 305 306 306 305 303 308 308 306 303 300 308 310 308 307 307 307 302 297 298 301 309 303 317 327 330 329 334 334 334 335
310 317 317 322 321 321 312 296 296 299 304 304 305 302 303 306 305 305 304 303 306 310 305 304 303 311 311 311 311 306 305 311 306 308 304 306 320 325 328 326 330 331 332 332 334
316 314 316 319 323 316 305 298 301 303 303 304 300 305 301 304 302 303 304 306 306 310 314 309 303 310 310 312 312 311 312 304 306 300 298 304 310 312 321 323 328 330 330 332 335
315 310 316 320 320 309 299 300 302 305 304 301 303 303 304 304 305 302 304 307 308 309 312 312 309 306 309 307 306 307 307 309 309 306 301 299 304 322 321 325 328 329 330 331 332
313 306 317 319 304 305 301 303 300 303 307 302 304 305 304 305 304 304 303 308 310 311 307 312 310 305 305 311 312 311 308 310 303 303 306 307 308 323 327 328 331 328 329 330 334
309 310 316 314 298 300 303 302 303 302 302 302 301 305 308 305 302 306 306 311 312 311 310 313 308 303 304 307 311 309 310 310 311 315 306 301 308 325 328 331 331 328 328 331 332
308 302 306 308 306 301 299 299 298 303 302 303 303 304 306 304 308 305 306 310 311 312 318 316 312 309 301 304 309 307 308 310 310 305 306 306 315 322 327 327 329 330 331 331 331
307 305 305 298 302 301 301 299 297 297 302 304 301 301 302 302 303 304 308 309 310 314 314 315 308 310 311 310 310 308 307 308 308 309 305 308 312 321 327 328 329 331 329 328 328
302 302 308 303 302 301 298 298 297 298 297 298 299 302 303 300 302 303 305 310 309 313 312 316 308 310 308 311 310 308 310 310 309 309 309 309 312 321 331 331 328 329 328 327 326
311 310 306 301 300 297 300 298 299 301 303 303 302 301 301 303 308 308 309 311 312 313 312 312 310 308 303 309 308 304 308 308 309 311 311 307 321 331 329 326 325 327 327 324 324
Wind_Speed
11 10 11 11 12 13 15 15 15 16 18 18 20 22 23 18 23 10 1 7 1 11 5 11 12 11 12 13 10 12 13 6 3 6 13 5 4 8 5 6 2 5 12 18 19
13 12 12 13 11 13 15 16 16 16 16 19 20 23 24 18 15 5 3 3 7 10 11 13 13 11 12 12 8 12 12 3 11 7 8 5 3 6 4 10 14 9 6 19 19
11 11 10 11 13 12 13 14 15 15 17 18 20 22 26 18 16 11 4 7 8 11 15 11 10 12 15 12 13 12 16 10 6 6 6 5 6 7 6 6 10 14 12 17 16
11 13 12 12 12 14 14 15 16 17 17 18 19 21 26 11 6 9 7 8 9 14 14 11 12 14 16 16 15 15 13 2 3 1 5 8 7 5 2 12 9 16 14 15 14
13 14 13 13 14 14 15 18 17 18 16 16 17 17 16 10 4 11 10 9 12 15 13 12 14 14 17 16 15 12 17 10 7 8 7 8 7 5 3 11 10 15 14 14 13
12 13 13 14 14 16 17 17 18 17 17 16 15 16 12 15 6 6 5 11 14 11 12 12 10 12 14 17 13 13 17 12 10 10 9 10 6 4 12 10 11 12 13 12 12
12 13 15 14 14 15 17 20 21 19 16 18 15 9 12 16 2 4 8 10 11 9 11 10 9 8 10 13 13 14 11 14 14 12 12 6 11 9 12 8 11 9 10 12 10
12 13 15 15 14 14 18 20 22 22 20 16 8 11 10 12 4 10 10 10 8 9 11 6 8 12 15 6 7 13 15 15 18 16 10 8 3 16 10 8 11 10 9 10 11
14 15 15 15 16 17 19 23 25 21 13 10 9 10 15 3 12 14 15 14 11 9 8 7 12 14 12 13 14 15 15 19 19 16 11 13 8 13 10 1 5 10 11 10 12
12 13 16 19 17 17 20 27 19 10 9 10 9 7 17 12 9 7 9 14 14 11 11 12 11 14 14 14 15 16 18 17 18 16 14 14 15 13 10 2 3 5 10 10 12
15 13 14 15 17 18 18 14 8 9 16 15 8 14 3 9 6 12 12 16 18 14 17 18 16 17 20 20 19 14 14 21 8 6 12 17 14 4 9 5 3 3 4 11 11
17 16 16 17 16 19 14 7 8 9 12 18 21 19 15 5 7 14 16 17 18 18 19 15 20 20 17 15 15 17 14 13 12 12 7 12 8 4 4 6 7 5 4 2 9
16 17 17 19 18 13 6 8 8 9 10 14 24 24 22 21 17 15 17 22 20 21 21 22 15 20 16 12 11 15 17 15 16 13 11 17 13 10 8 5 8 8 4 3 5
15 17 17 21 10 7 4 5 8 7 8 12 10 18 23 20 22 25 23 23 17 22 23 21 20 12 15 17 17 17 17 16 13 11 12 21 15 20 17 10 4 9 7 6 3
14 15 17 11 12 4 7 8 9 6 8 10 13 5 11 27 4 28 24 25 25 20 18 20 22 15 17 19 18 15 8 9 12 11 16 16 12 10 17 15 7 7 8 9 8
14 13 18 6 8 7 8 9 7 8 8 5 7 8 12 25 25 12 29 25 20 20 21 22 15 17 16 16 16 15 6 10 13 14 15 18 15 13 16 13 10 9 11 13 10
14 12 11 10 8 10 10 8 8 9 6 3 4 9 15 17 25 18 29 27 24 22 23 20 15 13 16 16 14 15 14 10 10 12 11 18 15 14 12 11 11 12 14 12 11
14 13 7 8 7 7 9 8 10 4 7 8 7 15 15 19 21 22 27 25 28 24 15 17 21 21 14 22 14 19 19 13 14 14 13 6 10 14 13 13 13 15 13 13 14
13 8 6 1 3 6 9 11 5 12 10 12 18 18 18 19 15 24 26 27 27 25 24 19 21 25 18 19 20 17 20 20 21 12 10 16 14 14 15 14 14 15 12 9 15
7 6 4 6 3 6 8 15 16 13 2 8 16 17 16 17 21 24 25 27 28 29 22 6 16 19 22 18 20 20 17 17 13 18 12 12 20 12 20 17 15 15 12 10 11
9 6 6 6 3 7 10 13 14 14 9 12 14 15 18 19 19 22 24 20 29 29 23 17 12 15 18 18 19 17 11 14 13 15 9 13 10 18 18 19 16 13 9 9 8
6 4 5 4 8 7 11 14 8 17 17 18 15 17 16 16 18 19 22 23 28 25 26 19 11 13 20 18 17 16 18 15 11 14 10 4 8 11 20 17 19 15 10 8 7
6 2 5 6 7 6 11 13 16 16 16 22 21 18 9 14 15 19 18 21 16 24 25 17 8 13 15 19 19 13 19 17 16 12 11 13 10 18 15 18 16 15 11 9 8
5 4 4 3 7 9 11 14 15 15 21 24 25 15 11 15 10 11 13 6 10 20 16 11 12 18 14 16 17 19 16 16 17 10 13 9 19 20 19 18 16 17 12 11 10
6 3 6 2 3 7 10 12 18 18 20 19 25 21 17 10 15 12 9 4 7 10 18 15 13 16 16 9 21 19 20 16 14 14 14 1 18 21 19 19 18 15 9 7 9
4 4 2 7 9 13 9 13 18 20 9 28 21 23 18 18 8 19 10 13 6 12 19 16 13 15 11 12 10 20 19 21 20 17 15 16 15 12 20 17 14 13 11 12 9
2 4 4 2 6 7 10 14 12 13 19 26 16 14 19 18 6 14 14 14 17 16 15 18 12 12 13 10 9 12 9 9 12 11 5 5 18 18 17 15 11 11 11 9 8
Wind_Direction
347 347 338 343 340 342 329 338 332 328 326 326 325 321 319 325 306 209 245 29 146 164 237 187 213 218 236 250 248 266 267 307 92 81 105 140 54 97 67 108 60 65 47 125 146
341 345 338 335 335 329 334 332 324 329 325 324 322 319 316 330 302 274 49 136 169 190 207 192 198 207 223 227 231 246 262 287 21 45 60 93 5 36 329 158 135 104 98 126 156
333 333 332 326 329 331 326 320 323 328 321 321 320 318 312 318 274 82 125 163 195 210 247 220 232 212 234 227 219 233 262 89 141 36 341 349 329 6 301 47 90 136 143 149 162
322 327 332 330 326 325 321 318 324 321 318 317 318 316 310 294 316 81 132 162 201 230 241 215 229 222 240 230 233 246 255 306 121 135 307 319 341 305 33 71 63 105 143 157 169
322 318 319 323 325 324 320 322 320 314 314 311 310 315 312 293 324 123 137 164 203 224 218 215 219 225 235 240 234 223 265 224 234 256 278 314 292 36 109 87 104 113 140 157 171
325 320 316 312 317 318 318 317 310 306 308 304 305 307 264 279 66 132 193 181 239 226 228 224 233 236 261 264 251 218 240 252 228 238 260 284 276 229 97 122 122 139 140 156 166
327 325 317 309 306 314 315 311 303 304 303 300 294 268 267 257 143 191 202 219 223 229 250 232 237 237 227 259 254 270 259 241 245 230 247 300 250 188 112 146 140 149 149 144 166
328 324 323 317 308 306 307 303 298 304 301 290 255 240 268 296 252 207 220 229 237 238 259 256 237 245 250 246 262 241 235 241 211 219 213 243 284 113 140 171 164 157 139 149 165
329 325 324 321 313 311 306 300 296 290 283 262 220 233 259 139 220 227 222 215 204 220 219 247 224 228 213 236 223 217 234 220 225 191 223 219 142 127 119 131 165 150 149 170 158
327 325 325 324 317 308 301 288 276 289 225 214 259 260 241 232 186 187 205 217 192 200 197 210 214 221 230 212 226 208 217 231 236 169 218 215 252 121 109 61 123 144 160 168 170
333 330 326 321 312 304 313 296 205 191 224 246 174 237 92 202 146 206 203 207 197 193 216 203 210 214 218 220 238 256 239 223 212 108 188 227 225 133 72 82 43 46 145 173 185
338 332 331 325 312 302 289 318 34 342 292 263 255 257 257 132 244 216 179 199 205 206 213 194 226 229 230 224 229 252 246 246 240 138 212 238 234 146 91 80 78 60 19 255 182
337 333 330 320 312 287 319 33 325 331 265 265 227 233 223 230 236 219 195 203 200 217 208 226 216 225 223 214 228 230 235 227 234 187 192 259 218 192 159 134 102 82 77 80 297
336 334 329 319 290 344 72 341 321 336 273 257 204 226 224 220 231 228 196 216 223 218 226 222 236 219 196 229 213 226 219 245 241 208 220 209 236 220 159 136 124 106 82 69 56
333 332 324 325 315 317 8 311 322 253 279 77 141 31 205 202 197 198 220 217 222 216 225 211 227 192 226 214 212 236 244 199 237 239 245 219 238 270 148 161 113 87 85 88 78
325 325 322 249 235 334 307 303 259 233 243 179 149 210 208 210 229 192 201 213 226 228 226 237 201 219 218 221 226 224 172 224 238 234 228 238 220 213 171 131 128 103 89 74 71
315 317 291 312 338 344 304 250 230 254 100 232 213 198 220 202 220 220 192 197 209 214 217 213 207 227 217 216 195 204 201 202 204 214 230 210 219 75 105 110 111 112 96 89 91
302 301 232 273 290 315 275 228 245 322 295 348 301 285 229 228 206 213 192 201 211 212 205 207 214 194 200 223 191 205 206 231 196 212 208 171 200 124 118 116 112 102 97 105 90
295 233 247 280 338 275 264 230 257 258 1 330 321 294 263 235 226 215 213 209 201 214 226 203 224 180 197 220 208 196 226 240 274 272 253 161 100 124 138 126 129 107 102 86 95
288 284 64 10 241 247 247 255 279 275 300 300 289 291 279 236 216 212 203 209 208 213 220 240 212 196 195 206 236 246 199 226 240 251 221 155 166 168 163 145 139 126 109 110 79
261 247 81 347 231 228 245 256 256 279 277 267 289 315 310 306 297 231 219 211 207 199 215 236 242 173 188 206 203 216 227 232 240 237 262 237 190 132 145 151 140 109 107 103 96
283 239 78 275 245 236 252 260 283 286 287 252 266 285 282 314 307 281 218 224 191 195 207 215 213 224 201 195 224 213 215 218 232 221 264 66 86 148 136 141 123 121 131 123 100
271 79 59 264 269 265 265 258 279 277 256 265 246 258 278 298 298 258 261 210 197 193 199 190 225 221 185 200 209 222 207 221 225 280 242 250 130 151 127 115 139 132 135 135 123
275 235 141 241 296 295 297 287 273 271 263 259 256 247 270 270 260 285 267 158 195 194 194 191 223 236 192 196 194 209 227 221 192 224 240 211 144 154 149 146 140 146 162 134 105
274 35 12 248 277 266 275 286 288 286 270 237 250 246 249 274 319 228 333 96 194 216 187 207 226 234 260 224 194 192 218 201 219 221 243 169 158 173 161 155 150 130 126 134 95
293 314 204 283 287 285 247 266 279 276 278 285 230 231 242 250 219 281 348 320 216 185 184 192 217 230 229 251 188 191 197 208 212 220 226 250 143 154 153 135 131 145 157 105 97
240 253 275 185 298 301 271 283 279 261 262 244 253 243 239 262 268 305 297 291 292 303 198 187 219 224 209 201 207 198 208 211 212 219 233 214 122 118 129 132 141 117 101 111 107